When you browse on this site, cookies collect data to enhance your experience and personalize the content and advertising you see.
Visit our Privacy Policy to learn more. By continuing to use the site, you agree to this use of cookies and data.
  • In Romania
  • List of Countries
  • For 7 days
  • Water Temperature
  • Satellite Maps
  • Weather Map
  • Weather Widgets
  • user-avatar
    Login

    Hourly Weather Modrzany

    Today, 20 February, Wednesday

    Time Temperature Precipitation Wind Pressure Humidity
    00:00 +5°C° 0.4 mm 4 mps 744 mmHg 82%
    01:00 +5°C° 0.4 mm 5 mps 744 mmHg 84%
    02:00 +5°C° 0 mm 5 mps 744 mmHg 86%
    03:00 +3°C° 0 mm 5 mps 744 mmHg 87%
    04:00 +2°C° 0 mm 5 mps 744 mmHg 88%
    05:00 +2°C° 0 mm 5 mps 745 mmHg 88%
    06:00 +2°C° 0 mm 5 mps 745 mmHg 87%
    07:00 +2°C° 0 mm 5 mps 745 mmHg 87%
    08:00 +2°C° 0 mm 5 mps 745 mmHg 82%
    09:00 +3°C° 0 mm 6 mps 746 mmHg 78%
    10:00 +4°C° 0 mm 6 mps 746 mmHg 73%
    11:00 +4°C° 0 mm 6 mps 746 mmHg 72%
    12:00 +4°C° 0 mm 6 mps 746 mmHg 70%
    13:00 +4°C° 0 mm 6 mps 747 mmHg 68%
    14:00 +4°C° 0 mm 6 mps 747 mmHg 68%
    15:00 +4°C° 0 mm 6 mps 747 mmHg 68%
    16:00 +4°C° 0 mm 6 mps 747 mmHg 68%
    17:00 +5°C° 0 mm 5 mps 747 mmHg 70%
    18:00 +4°C° 0 mm 4 mps 748 mmHg 73%
    19:00 +4°C° 0 mm 4 mps 748 mmHg 76%
    20:00 +4°C° 0 mm 4 mps 748 mmHg 77%
    21:00 +4°C° 0 mm 4 mps 749 mmHg 77%
    22:00 +4°C° 0 mm 4 mps 749 mmHg 78%
    23:00 +4°C° 0 mm 4 mps 749 mmHg 78%

    Tomorrow, 21 February, Thursday

    Time Temperature Precipitation Wind Pressure Humidity
    00:00 +4°C° 0 mm 4 mps 749 mmHg 79%
    01:00 +4°C° 0 mm 4 mps 750 mmHg 79%
    02:00 +3°C° 0 mm 4 mps 750 mmHg 80%
    03:00 +3°C° 0 mm 4 mps 750 mmHg 81%
    04:00 +3°C° 0 mm 4 mps 750 mmHg 81%
    05:00 +3°C° 0 mm 4 mps 750 mmHg 80%
    06:00 +3°C° 0 mm 4 mps 750 mmHg 80%
    07:00 +3°C° 0 mm 4 mps 750 mmHg 79%
    08:00 +3°C° 0 mm 5 mps 749 mmHg 74%
    09:00 +5°C° 0 mm 5 mps 749 mmHg 69%
    10:00 +5°C° 0 mm 6 mps 749 mmHg 65%
    11:00 +5°C° 0.2 mm 6 mps 749 mmHg 64%
    12:00 +5°C° 0.2 mm 6 mps 748 mmHg 64%
    13:00 +7°C° 0.2 mm 6 mps 748 mmHg 63%
    14:00 +5°C° 0.6 mm 6 mps 748 mmHg 66%
    15:00 +5°C° 0.6 mm 6 mps 747 mmHg 69%
    16:00 +5°C° 0.6 mm 6 mps 747 mmHg 72%
    17:00 +5°C° 0.5 mm 6 mps 747 mmHg 74%
    18:00 +5°C° 0.5 mm 7 mps 747 mmHg 76%
    19:00 +4°C° 0.5 mm 7 mps 747 mmHg 77%
    20:00 +4°C° 0.4 mm 7 mps 747 mmHg 79%
    21:00 +4°C° 0.4 mm 7 mps 747 mmHg 80%
    22:00 +4°C° 0.4 mm 7 mps 746 mmHg 81%
    23:00 +4°C° 0.5 mm 7 mps 746 mmHg 83%

    Day after tomorrow, 22 February, Friday

    Time Temperature Precipitation Wind Pressure Humidity
    00:00 +5°C° 0.5 mm 6 mps 746 mmHg 85%
    01:00 +5°C° 0.5 mm 6 mps 746 mmHg 87%
    02:00 +5°C° 0.2 mm 6 mps 746 mmHg 88%
    03:00 +5°C° 0.2 mm 6 mps 746 mmHg 88%
    04:00 +5°C° 0.2 mm 6 mps 745 mmHg 89%
    05:00 +4°C° 0.8 mm 6 mps 746 mmHg 87%
    06:00 +4°C° 0.8 mm 7 mps 747 mmHg 86%
    07:00 +4°C° 0.8 mm 7 mps 747 mmHg 85%
    08:00 +2°C° 0.3 mm 7 mps 748 mmHg 81%
    09:00 0°C° 0.3 mm 7 mps 749 mmHg 78%
    10:00 -2°C° 0.3 mm 7 mps 751 mmHg 74%
    11:00 -1°C° 0 mm 6 mps 752 mmHg 67%
    12:00 -1°C° 0 mm 6 mps 753 mmHg 61%
    13:00 0°C° 0 mm 5 mps 754 mmHg 55%
    14:00 -2°C° 0 mm 6 mps 754 mmHg 54%
    15:00 -2°C° 0 mm 6 mps 755 mmHg 54%
    16:00 -3°C° 0 mm 6 mps 755 mmHg 53%
    17:00 -4°C° 0 mm 6 mps 756 mmHg 55%
    18:00 -4°C° 0 mm 5 mps 757 mmHg 58%
    19:00 -5°C° 0 mm 5 mps 757 mmHg 60%
    20:00 -6°C° 0 mm 5 mps 758 mmHg 57%
    21:00 -6°C° 0 mm 5 mps 759 mmHg 55%
    22:00 -5°C° 0 mm 4 mps 759 mmHg 53%
    23:00 -5°C° 0 mm 4 mps 760 mmHg 51%

    23 February, Saturday

    Time Temperature Precipitation Wind Pressure Humidity
    00:00 -5°C° 0 mm 4 mps 760 mmHg 48%
    01:00 -7°C° 0 mm 4 mps 760 mmHg 46%
    02:00 -6°C° 0 mm 3 mps 761 mmHg 45%
    03:00 -6°C° 0 mm 3 mps 761 mmHg 44%
    04:00 -6°C° 0 mm 3 mps 761 mmHg 43%
    05:00 -5°C° 0 mm 2 mps 761 mmHg 43%
    06:00 -5°C° 0 mm 2 mps 761 mmHg 43%
    07:00 -5°C° 0 mm 2 mps 761 mmHg 43%
    08:00 -4°C° 0 mm 2 mps 761 mmHg 38%
    09:00 -4°C° 0 mm 3 mps 762 mmHg 34%
    10:00 -2°C° 0 mm 3 mps 762 mmHg 30%
    11:00 -2°C° 0 mm 3 mps 762 mmHg 28%
    12:00 -1°C° 0 mm 3 mps 761 mmHg 25%
    13:00 0°C° 0 mm 3 mps 761 mmHg 23%
    14:00 +1°C° 0 mm 2 mps 761 mmHg 25%
    15:00 +1°C° 0 mm 2 mps 761 mmHg 27%
    16:00 +1°C° 0 mm 2 mps 761 mmHg 29%
    17:00 -1°C° 0 mm 2 mps 761 mmHg 32%
    18:00 0°C° 0 mm 1 mps 761 mmHg 35%
    19:00 -1°C° 0 mm 1 mps 761 mmHg 38%
    20:00 -1°C° 0 mm 1 mps 761 mmHg 38%
    21:00 -1°C° 0 mm 1 mps 761 mmHg 39%
    22:00 -1°C° 0 mm 1 mps 760 mmHg 39%
    23:00 -1°C° 0 mm 1 mps 760 mmHg 39%

    24 February, Sunday

    Time Temperature Precipitation Wind Pressure Humidity
    00:00 -3°C° 0 mm 2 mps 760 mmHg 39%
    01:00 -3°C° 0 mm 2 mps 760 mmHg 39%
    02:00 -3°C° 0 mm 2 mps 760 mmHg 39%
    03:00 -3°C° 0 mm 2 mps 759 mmHg 39%
    04:00 -3°C° 0 mm 2 mps 759 mmHg 38%
    05:00 -3°C° 0 mm 2 mps 759 mmHg 37%
    06:00 -3°C° 0 mm 2 mps 758 mmHg 36%
    07:00 -2°C° 0 mm 2 mps 758 mmHg 35%
    08:00 -1°C° 0 mm 3 mps 758 mmHg 33%
    09:00 0°C° 0 mm 3 mps 758 mmHg 31%
    10:00 +1°C° 0 mm 3 mps 758 mmHg 28%
    11:00 +1°C° 0 mm 4 mps 757 mmHg 28%
    12:00 +3°C° 0 mm 4 mps 757 mmHg 28%
    13:00 +4°C° 0 mm 4 mps 756 mmHg 28%
    14:00 +4°C° 0 mm 3 mps 756 mmHg 34%
    15:00 +3°C° 0 mm 3 mps 756 mmHg 39%
    16:00 +4°C° 0 mm 2 mps 755 mmHg 45%
    17:00 +3°C° 0 mm 2 mps 756 mmHg 49%
    18:00 +3°C° 0 mm 2 mps 756 mmHg 52%
    19:00 +2°C° 0 mm 2 mps 756 mmHg 56%
    20:00 +2°C° 0 mm 2 mps 756 mmHg 58%
    21:00 +1°C° 0 mm 2 mps 756 mmHg 60%
    22:00 +2°C° 0 mm 1 mps 756 mmHg 62%
    23:00 +2°C° 0 mm 1 mps 756 mmHg 63%

    25 February, Monday

    Time Temperature Precipitation Wind Pressure Humidity
    00:00 +2°C° 0 mm 1 mps 756 mmHg 64%
    01:00 +2°C° 0 mm 1 mps 756 mmHg 65%
    02:00 +2°C° 0 mm 1 mps 755 mmHg 65%
    03:00 +2°C° 0 mm 1 mps 755 mmHg 66%
    04:00 +2°C° 0 mm 1 mps 755 mmHg 66%
    05:00 +1°C° 0 mm 2 mps 755 mmHg 66%
    06:00 +1°C° 0 mm 2 mps 755 mmHg 67%
    07:00 +1°C° 0 mm 2 mps 755 mmHg 67%
    08:00 +2°C° 0 mm 2 mps 755 mmHg 63%
    09:00 +2°C° 0 mm 3 mps 755 mmHg 60%
    10:00 +3°C° 0 mm 3 mps 755 mmHg 56%
    11:00 +4°C° 0 mm 3 mps 755 mmHg 55%
    12:00 +7°C° 0 mm 3 mps 754 mmHg 53%
    13:00 +8°C° 0 mm 3 mps 754 mmHg 52%
    14:00 +6°C° 0 mm 4 mps 754 mmHg 55%
    15:00 +6°C° 0 mm 4 mps 754 mmHg 58%
    16:00 +6°C° 0 mm 4 mps 754 mmHg 60%
    17:00 +5°C° 0 mm 3 mps 754 mmHg 68%
    18:00 +4°C° 0 mm 3 mps 754 mmHg 75%
    19:00 +3°C° 0 mm 3 mps 754 mmHg 83%
    20:00 +2°C° 0 mm 3 mps 754 mmHg 86%
    21:00 +2°C° 0 mm 3 mps 754 mmHg 89%
    22:00 +2°C° 0 mm 2 mps 755 mmHg 93%
    23:00 +2°C° 0 mm 2 mps 754 mmHg 93%
    Show more